This demonstration page uses our WeatherBlox Daily Observations layout. Learn more.

Left ArrowRight Arrow

44.8408, -93.29828

Hourly Observations for July 11, 2019

Temp ( °F °C ) Dew Point ( °F °C ) Humidity (%) Winds ( mph kmh ) Pressure ( in mb ) Visibility ( mi km ) Precip ( " mm )
12:53 am 00:53 Mostly Clear 70 21.1 63 17.2 79 79 N 15 24 29.97 1015 10 16 0.00 0.00
1:53 am 01:53 Mostly Clear 69 20.6 62 16.7 78 78 N 12 19 29.98 1015 10 16 0.00 0.00
2:53 am 02:53 Mostly Clear 68 20 61 16.1 78 78 N 13 20 30.00 1016 10 16 0.00 0.00
3:53 am 03:53 Clear 67 19.4 61 16.1 81 81 N 8 13 30.02 1017 10 16 0.00 0.00
4:53 am 04:53 Clear 65 18.3 61 16.1 87 87 N 7 11 30.04 1017 10 16 0.00 0.00
5:53 am 05:53 Sunny 65 18.3 60 15.6 84 84 N 7 11 30.07 1018 10 16 0.00 0.00
6:53 am 06:53 Sunny 66 18.9 60 15.6 81 81 N 7 11 30.07 1018 10 16 0.00 0.00
7:53 am 07:53 Sunny 68 20 61 16.1 78 78 VRB 3 6 30.07 1018 10 16 0.00 0.00
8:53 am 08:53 Mostly Sunny 71 21.7 60 15.6 68 68 NNE 6 9 30.08 1019 10 16 0.00 0.00
9:53 am 09:53 Sunny 73 22.8 59 15 62 62 N 6 9 30.07 1018 10 16 0.00 0.00
10:53 am 10:53 Sunny 75 23.9 56 13.3 52 52 VRB 7 11 30.07 1018 10 16 0.00 0.00
11:53 am 11:53 Sunny 77 25 51 10.6 40 40 NNE 6 9 30.06 1018 10 16 0.00 0.00
12:53 pm 12:53 Mostly Sunny 79 26.1 53 11.7 41 41 VRB 3 6 30.06 1018 10 16 0.00 0.00
1:53 pm 13:53 Mostly Sunny 80 26.7 53 11.7 39 39 NW 5 7 30.04 1017 10 16 0.00 0.00
2:53 pm 14:53 Mostly Sunny 81 27.2 52 11.1 37 37 NNW 6 9 30.03 1017 10 16 0.00 0.00
3:53 pm 15:53 Mostly Sunny 80 26.7 52 11.1 38 38 VRB 3 6 30.01 1016 10 16 0.00 0.00
4:53 pm 16:53 Mostly Sunny 81 27.2 53 11.7 38 38 SSW 5 7 29.99 1016 10 16 0.00 0.00
5:53 pm 17:53 Mostly Sunny 81 27.2 58 14.4 45 45 SSW 8 13 29.98 1015 10 16 0.00 0.00
6:53 pm 18:53 Mostly Sunny 81 27.2 58 14.4 45 45 W 5 7 29.97 1015 10 16 0.00 0.00
7:53 pm 19:53 Mostly Sunny 80 26.7 56 13.3 44 44 SW 8 13 29.96 1015 10 16 0.00 0.00
8:53 pm 20:53 Mostly Sunny 79 26.1 57 13.9 47 47 W 7 11 29.95 1014 10 16 0.00 0.00
9:53 pm 21:53 Clear 78 25.6 59 15 52 52 SW 6 9 29.95 1014 10 16 0.00 0.00
10:53 pm 22:53 Clear 76 24.4 60 15.6 58 58 SSW 6 9 29.94 1014 10 16 0.00 0.00
11:53 pm 23:53 Clear 74 23.3 61 16.1 64 64 S 7 11 29.93 1014 10 16 0.00 0.00

Powered by AerisWeather